Location: Boulin
(43.2500°N, 0.1333°E)
Time: 23:37:13
(UTC+00:00)

Meteor 1-26 Rocket - Pass Details

Date: 11 December 2025
Orbit: 807 x 926 km, 81.3° (Epoch: 19 January)

Event Time Altitude Azimuth Distance (km) Brightness Sun altitude
Rises 17:54:19 0° 171° (S) 3,335 7.4 -15.8°
Reaches altitude 10° 17:56:47 10° 165° (SSE) 2,397 6.6 -16.2°
Maximum altitude 18:01:54 46° 93° (E) 1,085 4.3 -17.1°
Enters shadow 18:05:35 18° 28° (NNE) 1,886 5.6 -17.8°
